Location: Nairn
(57.5833°N, 3.8667°W)
Time: 19:47:39
(UTC+00:00)

Altair - Pass Details

Date: 10 October 2022
Orbit: 1501 x 1682 km, 47.2° (Epoch: 03 December)

Event Time Altitude Azimuth Distance (km) Brightness Sun altitude
Exits shadow 05:34:19 - 243° (WSW) 4,095 9.2 -9.4°
Reaches altitude 10° 05:35:16 10° 241° (WSW) 3,811 9.0 -9.3°
Maximum altitude 05:44:21 46° 173° (S) 2,100 8.3 -8.0°
Drops below altitude 10° 05:53:42 10° 105° (ESE) 3,929 11.2 -6.8°
Sets 05:57:03 0° 100° (E) 4,929 12.6 -6.3°
